This is the latest recevied weather packets stored in our database for station/object W0VI. If no packets are shown the sender has not sent any weather packets the latest 10 day(s).
| Time | Temp. | Humidity | Pressure | Rain* | Wind** | Luminosity | Snow |
|---|---|---|---|---|---|---|---|
| 1788052441 | 23.33° C | 84% | 1010 hPa | 0 mm | - | 0 W/m² | - |
| 1788052140 | 23.33° C | 84% | 1010 hPa | 0 mm | - | 0 W/m² | - |
| 1788051835 | 23.33° C | 84% | 1010 hPa | 0 mm | - | 0 W/m² | - |
| 1788051529 | 23.33° C | 84% | 1010.3 hPa | 0 mm | - | 0 W/m² | - |
| 1788051227 | 23.33° C | 84% | 1010.1 hPa | 0 mm | - | 1 W/m² | - |
| 1788050922 | 23.89° C | 83% | 1010.1 hPa | 0 mm | - | 3 W/m² | - |
| 1788050617 | 23.89° C | 83% | 1009.9 hPa | 0 mm | - | 5 W/m² | - |
| 1788050317 | 23.89° C | 82% | 1010.1 hPa | 0 mm | - | 9 W/m² | - |
| 1788050016 | 23.89° C | 82% | 1010.2 hPa | 0 mm | - | 12 W/m² | - |
| 1788049714 | 23.89° C | 82% | 1010.3 hPa | 0 mm | - | 16 W/m² | - |
| 1788049410 | 24.44° C | 81% | 1010 hPa | 0 mm | - | 23 W/m² | - |
| 1788049105 | 24.44° C | 81% | 1010.2 hPa | 0 mm | - | 27 W/m² | - |
| 1788048800 | 24.44° C | 80% | 1010 hPa | 0 mm | - | 31 W/m² | - |
| 1788048500 | 24.44° C | 80% | 1009.8 hPa | 0 mm | - | 33 W/m² | - |
| 1788048197 | 24.44° C | 80% | 1010 hPa | 0 mm | - | 34 W/m² | - |
| 1788047894 | 24.44° C | 79% | 1010 hPa | 0 mm | - | 35 W/m² | - |
| 1788047590 | 24.44° C | 79% | 1009.9 hPa | 0 mm | - | 38 W/m² | - |
| 1788047284 | 24.44° C | 79% | 1009.9 hPa | 0 mm | - | 48 W/m² | - |
| 1788046979 | 24.44° C | 78% | 1009.7 hPa | 0 mm | - | 53 W/m² | - |
| 1788046678 | 25° C | 78% | 1010 hPa | 0 mm | - | 54 W/m² | - |
| 1788046373 | 25° C | 78% | 1009.9 hPa | 0 mm | - | 62 W/m² | - |
| 1788046070 | 25° C | 77% | 1009.9 hPa | 0 mm | - | 66 W/m² | - |
| 1788045766 | 25° C | 77% | 1009.9 hPa | 0 mm | - | 59 W/m² | - |
| 1788045461 | 25.56° C | 77% | 1009.7 hPa | 0 mm | - | 129 W/m² | - |
| 1788045156 | 25° C | 77% | 1009.8 hPa | 0 mm | - | 109 W/m² | - |
* Rain latest hour (hover to see other rain measurements)
** Current wind speed in m/s (hover to see current wind gust speed)